Volver al catálogo

COSMOS 1275 DEB

LostPO
NORAD 42227·DEBRIS·🇷🇺 Russia

Lanzado Jun 4, 1981 desde Plesetsk Cosmodrome

Loading…

Próximos Pases (próximas 24 horas)

TLE

ObsoletoSource: Space-Track

Época: Jul 17, 2025, 14:07 UTC

1 42227U 81053UT  25198.58822520  .00000950  00000-0  80821-3 0  9997
2 42227  82.9053 153.0851 0075133 271.9240  87.3318 13.85120417 41932

Sigue COSMOS 1275 DEB en tiempo real con AllMySat

Download on the App Store